www.pogodaiklimat.ru
ПОГОДА в Манистике
Время
и дата
16:35 24.10
16:55 24.10
17:15 24.10
17:35 24.10
17:55 24.10
18:15 24.10
18:35 24.10
18:55 24.10
19:15 24.10
19:35 24.10
19:55 24.10
20:15 24.10
20:35 24.10
20:55 24.10
21:15 24.10
21:35 24.10
21:55 24.10
22:15 24.10
22:35 24.10
22:55 24.10
23:15 24.10
23:35 24.10
23:55 24.10
00:15 25.10
00:35 25.10
00:55 25.10
01:15 25.10
01:35 25.10
01:55 25.10
02:15 25.10
02:35 25.10
02:55 25.10
03:15 25.10
03:35 25.10
03:55 25.10
04:15 25.10
04:35 25.10
04:55 25.10
05:15 25.10
05:35 25.10
05:55 25.10
06:15 25.10
06:35 25.10
06:55 25.10
07:15 25.10
07:35 25.10
07:55 25.10
08:15 25.10
Ветер
(напр.,м/с)
Видим. Явления Облачность Т
(С)
Тd
(С)
f
(%)
Тe
(С)
Тes
(С)
Комфортность P
(гПа)
Po
(гПа)
Тmin
(С)
Tmax
(С)
R
(мм)
R24
(мм)
S
(см)
СЗ 1 16 км 5/5 1440 м +2.2 -3.4 66 -2 -1 997.5
СЗ 1 16 км 5/5 1500 м +2.0 -4.1 64 -2 -1 997.5
СЗ 1 16 км 8/8 1500 м +1.7 -4.5 63 -2 -2 997.8
З 1 16 км 10/10 1500 м +1.1 -4.2 68 -3 -3 997.8
СЗ 1 16 км 8/8 1500 м +0.5 -4.4 70 -4 -4 997.8
СЗ 1 16 км 8/8 1500 м +0.2 -4.7 70 -4 -4 998.1
СЗ 1 16 км 8/8 1500 м 0.0 -4.8 70 -4 -4 998.5
СЗ 1 16 км 5/5 1500 м -0.1 -4.9 70 -3 -3 998.8 -0.1 +4.0
З 1 16 км 5/5 1500 м -0.5 -5.2 70 -5 -5 998.8
З 1 16 км ясно -0.8 -5.2 72 -4 -4 998.8
З 1 16 км 5/5 1410 м -0.8 -5.2 72 -4 -4 999.1
З 1 16 км 10/10 1410 м -1.0 -5.1 74 -5 -5 999.1
СЗ 1 16 км 5/5 1470 м -1.5 -5.1 76 -5 -5 998.8
СЗ 1 16 км ясно -1.6 -5.2 76 -5 -5 998.8
СЗ 1 16 км ясно -1.8 -5.2 78 -7 -7 998.8
СЗ 1 16 км ясно -1.6 -5.0 78 -6 -6 998.8
З 1 16 км ясно -2.0 -5.0 80 -7 -7 999.1
З 1 16 км ясно -2.3 -5.1 81 -6 -6 999.1
З 1 16 км ясно -2.7 -5.3 82 -7 -7 999.1
З 1 16 км 5/5 1110 м -2.9 -5.3 83 -7 -7 999.5
З 1 16 км 5/5 1110 м -2.6 -5.0 84 -7 -7 999.1
З 1 16 км ясно -3.0 -5.2 85 -7 -7 999.1
З 1 16 км 5/5 1140 м -3.0 -5.1 85 -8 -8 999.1
З 1 16 км 5/5 1200 м -2.2 -4.3 85 -7 -7 999.1
З 1 16 км ясно -2.3 -4.2 87 -7 -7 999.1
СЗ 1 16 км ясно -2.0 -4.0 86 -7 -7 998.8 -3.1 -0.2
З 1 16 км ясно -2.1 -4.2 86 -6 -6 999.1
З 1 16 км ясно -2.6 -4.5 87 -7 -7 999.1
СЗ 1 16 км ясно -2.5 -4.1 89 -8 -8 999.1
СЗ 1 16 км ясно -2.3 -4.1 87 -7 -7 999.1
СЗ 2 16 км ясно -2.7 -4.2 89 -9 -9 999.1
СЗ 1 16 км ясно -2.1 -3.9 87 -7 -7 999.5
З 1 16 км ясно -2.1 -3.8 88 -7 -7 999.5
СЗ 1 16 км ясно -2.1 -3.6 89 -7 -7 999.5
СЗ 1 16 км ясно -2.1 -3.5 90 -6 -6 999.5
СЗ 1 16 км ясно -2.5 -3.7 91 -7 -7 999.1
З 1 16 км 8/8 1500 м -2.2 -3.4 91 -6 -6 999.1
штиль 0 16 км 10/10 1500 м -2.1 -3.5 90 -3 -3 999.1
З 1 16 км 10/10 1500 м -1.9 -3.1 91 -6 -6 999.5
З 1 16 км 10/10 1500 м -1.5 -3.0 89 -5 -5 999.1
З 1 16 км 5/5 1500 м -2.3 -3.5 91 -8 -8 999.5
СЗ 1 16 км 5/5 1440 м -1.9 -2.9 93 -6 -6 999.5
СЗ 1 16 км 5/5 1440 м -1.6 -2.7 92 -6 -6 999.5
штиль 0 16 км 5/5 1800 м -1.8 -3.0 91 -3 -3 999.5 -2.8 -1.5
З 1 16 км 8/8 1800 м -2.0 -3.1 92 -6 -6 999.5
СЗ 1 16 км 10/10 1800 м -1.8 -2.8 93 -6 -6 999.5
СЗ 1 16 км 10/8 1800 м
[Ac]
-1.3 -2.5 92 -5 -5 999.8
штиль 0 16 км 10/0 3300 м
[Ac]
-1.0 -2.1 92 -2 -2 999.8
Местоположение метеостанции Schoolcraft County Airport: широта 45.9747 долгота -86.1719 высота над уровнем моря 209 м.
В архиве по умолчанию представлена погода в Манистике за последние 1-2 суток. Обновление информации о фактической погоде в базе происходит ежечасно! Архивные данные за месяц целиком и за предыдущие месяцы Вы можете получить, выбрав интересующий диапазон дат из раскрывающегося списка и нажав кнопку "Ввод!".
Внимание! Архив погоды МЕТАР в базе сайта по станциям, не включенным в климатический монитор, хранится не более 60 дней. Нет смысла пытаться выбрать более раннюю дату.
*Определитесь, кто Вы:
Внимание! Время в таблицах - местное (без учета летнего времени). Для получения всемирного времени необходимо вычесть поправку, которая равна -5 ч.
Смотрите также архив погоды в соседних городах и на ближайших метеорологических станциях:
Партнеры нашего сайта:      
Пояснения к столбцам:
  • Ветер - указаны скорость ветра в м/с - средняя за 10 мин, порывы в срок и между сроками (в фигурных скобках) и направление, откуда дует ветер: С - северный,
  • СВ - северо-восточный, В - восточный, ЮВ - юго-восточный, Ю - южный, ЮЗ - юго-западный, З - западный, СЗ - северо-западный.
  • Видимость - горизонтальная дальность видимости в метрах или километрах. При видимости от 1 до 10 км при отсутствии осадков обычно наблюдается дымка, при ухудшении видимости до 1 км и менее - туман. В сухую погоду видимость может ухудшаться дымом, пылью или мглою.
  • Явления - указаны атмосферные явления, наблюдавшиеся в срок или в последний час перед сроком; фигурными скобками обозначены явления, наблюдавшиеся между сроками (за 1-3 часа до срока); квадратными скобками обозначены град или гололедные отложения с указанием их диаметра в мм.
  • Облачность - указаны через наклонную черту общая и нижняя облачность в баллах и высота нижней границы облаков в метрах; квадратными скобками обозначены формы облаков: Ci - перистые, Cs - перисто-слоистые, Cc - перисто-кучевые, Ac - высококучевые, As - высокослоистые, Sc - слоисто-кучевые, Ns - слоисто-дождевые, Cu - кучевые, Cb - кучево-дождевые. Подробнее классификацию облаков см. в Атласе облаков (PDF).
  • T - Температура воздуха - температура, измеренная на высоте 2 м над землей.
  • Td - Температура точки росы - температура, при понижении до которой содержащийся в воздухе водяной пар достигнет насыщения.
  • f - Относительная влажность воздуха - влажноcть воздуха, измеренная на высоте 2 м над землей.
  • Te - Эффективная температура - температура, которую ощущает одетый по сезону человек в тени. Характеристика душности погоды. При расчете учитывается влияние влажности воздуха и скорости ветра на теплоощущения человека.
  • Tes - Эффективная температура на солнце - температура, которую ощущает человек, с поправкой на солнечный нагрев. Характеристика знойности погоды. Зависит от высоты солнца над горизонтом, облачности и скорости ветра. Ночью, в пасмурную погоду, а также при ветре 12 м/с и более поправка равна нулю.
  • P - Атмосферное давление - приведенное к уровню моря атмосферное давление.
  • Po - Атмосферное давление - измеренное на уровне метеостанции атмосферное давление.
  • Tmin - Минимальная температура - минимум температуры воздуха на высоте 2 м над землей.
  • Tmax - Максимальная температура - максимум температуры воздуха на высоте 2 м над землей.
  • R - Количество осадков - Количество выпавших осадков за период времени, мм. При наведении курсора мыши на число - период времени, за который выпало указанное количество осадков.
  • R24 - Количество осадков - Количество выпавших осадков за 24 часа, мм.
  • S - Снежный покров - Высота снежного покрова, см. При наведении курсора мыши на число - состояние снежного покрова и степень покрытия местности в баллах.